DLH1LB EDDM-EDDF

Flight info

Callsign DLH1LB
Flight time 0h 38m
Altitude 24000
Route GIVMI6Q/08L GIVMI Y101 ERNAS T161 DEBHI DEBHI1B
Aircraft A359/H-SDE2E3GHIJ3J4J5LM1ORWXY/LB1D1

Departure

Time 2026-05-06 15:43
Airport Munich Airport (EDDM)

Arrival

Time 2026-05-06 16:21
Airport Frankfurt Main Airport (EDDF)
Time Latitude Longitude Altitude Speed Heading
2026-05-06 14:50 48.35411 11.79319 1482 ft 0 kts 270°
2026-05-06 15:28 48.35411 11.79339 1478 ft 4 kts 270°
2026-05-06 15:28 48.35410 11.79380 1481 ft 4 kts 270°
2026-05-06 15:29 48.35410 11.79412 1476 ft 4 kts 279°
2026-05-06 15:29 48.35401 11.79447 1476 ft 4 kts 315°
2026-05-06 15:29 48.35379 11.79467 1476 ft 3 kts 353°
2026-05-06 15:29 48.35354 11.79471 1476 ft 4 kts 353°
2026-05-06 15:30 48.35345 11.79473 1476 ft 0 kts 353°
2026-05-06 15:33 48.35369 11.79468 1476 ft 4 kts 352°
2026-05-06 15:34 48.35417 11.79480 1476 ft 10 kts 39°
2026-05-06 15:34 48.35477 11.79566 1477 ft 13 kts 37°
2026-05-06 15:34 48.35572 11.79570 1492 ft 15 kts 352°
2026-05-06 15:34 48.35684 11.79548 1478 ft 17 kts 353°
2026-05-06 15:35 48.35811 11.79529 1479 ft 19 kts 353°
2026-05-06 15:35 48.35931 11.79506 1489 ft 18 kts 352°
2026-05-06 15:35 48.36060 11.79484 1479 ft 20 kts 353°
2026-05-06 15:35 48.36182 11.79467 1478 ft 12 kts
2026-05-06 15:36 48.36222 11.79555 1478 ft 12 kts 79°
2026-05-06 15:36 48.36234 11.79692 1476 ft 16 kts 83°
2026-05-06 15:36 48.36251 11.79912 1478 ft 27 kts 84°
2026-05-06 15:36 48.36271 11.80178 1484 ft 23 kts 83°
2026-05-06 15:37 48.36290 11.80434 1482 ft 26 kts 83°
2026-05-06 15:37 48.36311 11.80712 1480 ft 28 kts 83°
2026-05-06 15:37 48.36334 11.81010 1481 ft 27 kts 83°
2026-05-06 15:37 48.36355 11.81280 1482 ft 27 kts 83°
2026-05-06 15:38 48.36377 11.81567 1480 ft 25 kts 83°
2026-05-06 15:38 48.36392 11.81769 1481 ft 10 kts 84°
2026-05-06 15:38 48.36396 11.81886 1481 ft 13 kts 94°
2026-05-06 15:38 48.36394 11.82034 1477 ft 12 kts 84°
2026-05-06 15:39 48.36431 11.82128 1486 ft 5 kts 27°
2026-05-06 15:39 48.36471 11.82133 1477 ft 7 kts 356°
2026-05-06 15:39 48.36513 11.82127 1486 ft 0 kts 354°
2026-05-06 15:41 48.36515 11.82127 1486 ft 2 kts 354°
2026-05-06 15:41 48.36588 11.82116 1478 ft 16 kts 354°
2026-05-06 15:41 48.36678 11.82071 1482 ft 12 kts 307°
2026-05-06 15:42 48.36682 11.81981 1478 ft 0 kts 262°
2026-05-06 15:42 48.36682 11.81976 1478 ft 4 kts 262°
2026-05-06 15:42 48.36658 11.81704 1485 ft 61 kts 263°
2026-05-06 15:42 48.36580 11.80704 1478 ft 129 kts 264°
2026-05-06 15:43 48.36464 11.79161 1915 ft 150 kts 266°
2026-05-06 15:43 48.36347 11.77599 2658 ft 160 kts 264°
2026-05-06 15:43 48.36206 11.75839 3130 ft 178 kts 263°
2026-05-06 15:43 48.36036 11.73890 3582 ft 197 kts 263°
2026-05-06 15:44 48.35848 11.71785 4061 ft 212 kts 263°
2026-05-06 15:44 48.35675 11.69511 4606 ft 225 kts 266°
2026-05-06 15:44 48.35870 11.67121 5107 ft 240 kts 290°
2026-05-06 15:44 48.36813 11.64984 5752 ft 252 kts 307°
2026-05-06 15:45 48.37932 11.62844 6430 ft 268 kts 307°
2026-05-06 15:45 48.39002 11.60445 6752 ft 280 kts 299°
2026-05-06 15:45 48.39967 11.57897 6801 ft 281 kts 298°
2026-05-06 15:45 48.40938 11.55349 6797 ft 281 kts 299°
2026-05-06 15:46 48.41929 11.52814 6929 ft 279 kts 299°
2026-05-06 15:46 48.43000 11.50344 7486 ft 286 kts 307°
2026-05-06 15:46 48.44502 11.48343 8542 ft 291 kts 327°
2026-05-06 15:46 48.46338 11.47129 9654 ft 295 kts 339°
2026-05-06 15:47 48.48331 11.46153 10357 ft 312 kts 341°
2026-05-06 15:47 48.50486 11.45170 10791 ft 336 kts 341°
2026-05-06 15:47 48.52798 11.44139 11323 ft 354 kts 341°
2026-05-06 15:47 48.55193 11.43081 12124 ft 363 kts 341°
2026-05-06 15:48 48.57643 11.42001 13005 ft 369 kts 341°
2026-05-06 15:48 48.60131 11.40902 13872 ft 375 kts 340°
2026-05-06 15:48 48.62654 11.39786 14633 ft 381 kts 340°
2026-05-06 15:48 48.65222 11.38649 15387 ft 388 kts 340°
2026-05-06 15:49 48.67795 11.37508 16120 ft 394 kts 340°
2026-05-06 15:49 48.70377 11.36067 16843 ft 396 kts 330°
2026-05-06 15:49 48.72801 11.34061 17607 ft 399 kts 324°
2026-05-06 15:49 48.75148 11.31779 18380 ft 402 kts 321°
2026-05-06 15:50 48.77454 11.29372 19185 ft 403 kts 320°
2026-05-06 15:50 48.79763 11.26918 19946 ft 408 kts 320°
2026-05-06 15:50 48.82103 11.24442 20655 ft 413 kts 321°
2026-05-06 15:50 48.84410 11.21818 21383 ft 415 kts 315°
2026-05-06 15:51 48.86613 11.18948 22166 ft 420 kts 314°
2026-05-06 15:51 48.88779 11.16020 22917 ft 424 kts 313°
2026-05-06 15:51 48.90927 11.12915 23478 ft 428 kts 311°
2026-05-06 15:51 48.93076 11.09766 23727 ft 431 kts 311°
2026-05-06 15:52 48.95284 11.06529 23762 ft 451 kts 311°
2026-05-06 15:52 48.97588 11.03158 23783 ft 466 kts 312°
2026-05-06 15:52 48.99940 10.99735 23773 ft 469 kts 313°
2026-05-06 15:52 49.02299 10.96307 23788 ft 468 kts 313°
2026-05-06 15:53 49.04653 10.92879 23785 ft 468 kts 313°
2026-05-06 15:53 49.06972 10.89497 23787 ft 468 kts 313°
2026-05-06 15:53 49.09325 10.86061 23789 ft 468 kts 313°
2026-05-06 15:53 49.11674 10.82624 23804 ft 468 kts 313°
2026-05-06 15:54 49.14020 10.79186 23802 ft 468 kts 313°
2026-05-06 15:54 49.16370 10.75739 23801 ft 468 kts 313°
2026-05-06 15:54 49.18712 10.72297 23802 ft 468 kts 313°
2026-05-06 15:54 49.21054 10.68850 23799 ft 468 kts 313°
2026-05-06 15:55 49.23398 10.65397 23798 ft 468 kts 313°
2026-05-06 15:55 49.24953 10.63104 23795 ft 468 kts 313°
2026-05-06 15:55 49.28052 10.58526 23800 ft 466 kts 313°
2026-05-06 15:55 49.30381 10.55081 23796 ft 465 kts 313°
2026-05-06 15:56 49.32707 10.51636 23793 ft 465 kts 313°
2026-05-06 15:56 49.35017 10.48180 23796 ft 464 kts 311°
2026-05-06 15:56 49.37091 10.44420 23728 ft 460 kts 303°
2026-05-06 15:56 49.38938 10.40468 23511 ft 453 kts 302°
2026-05-06 15:57 49.40129 10.37847 23346 ft 451 kts 302°
2026-05-06 15:57 49.41921 10.33894 23082 ft 450 kts 302°
2026-05-06 15:57 49.44288 10.28678 22738 ft 449 kts 302°
2026-05-06 15:57 49.46071 10.24748 22459 ft 448 kts 302°
2026-05-06 15:58 49.47850 10.20828 22196 ft 446 kts 302°
2026-05-06 15:58 49.49619 10.16924 21930 ft 444 kts 302°
2026-05-06 15:58 49.50786 10.14347 21757 ft 443 kts 302°
2026-05-06 15:58 49.52544 10.10463 21489 ft 441 kts 302°
2026-05-06 15:59 49.54296 10.06588 21230 ft 440 kts 302°
2026-05-06 15:59 49.56036 10.02735 20965 ft 438 kts 302°
2026-05-06 15:59 49.58329 9.97637 20619 ft 436 kts 302°
2026-05-06 15:59 49.60053 9.93810 20271 ft 434 kts 302°
2026-05-06 16:00 49.61210 9.91229 19913 ft 432 kts 302°
2026-05-06 16:00 49.62889 9.87478 19320 ft 429 kts 302°
2026-05-06 16:00 49.64579 9.83702 18718 ft 426 kts 302°
2026-05-06 16:00 49.66251 9.79958 18102 ft 422 kts 302°
2026-05-06 16:01 49.67910 9.76241 17432 ft 419 kts 302°
2026-05-06 16:01 49.69553 9.72555 16838 ft 415 kts 302°
2026-05-06 16:01 49.71181 9.68898 16258 ft 411 kts 302°
2026-05-06 16:01 49.72796 9.65265 15661 ft 408 kts 302°
2026-05-06 16:02 49.74395 9.61663 15090 ft 404 kts 302°
2026-05-06 16:02 49.75978 9.58093 14522 ft 401 kts 302°
2026-05-06 16:02 49.77547 9.54548 13945 ft 398 kts 302°
2026-05-06 16:02 49.79081 9.51074 13371 ft 395 kts 303°
2026-05-06 16:03 49.80623 9.47582 12781 ft 391 kts 303°
2026-05-06 16:03 49.82146 9.44128 12231 ft 387 kts 302°
2026-05-06 16:03 49.83659 9.40692 11678 ft 384 kts 302°
2026-05-06 16:03 49.85155 9.37282 11132 ft 381 kts 302°
2026-05-06 16:04 49.86392 9.33691 10640 ft 375 kts 289°
2026-05-06 16:04 49.87200 9.29861 10553 ft 374 kts 285°
2026-05-06 16:04 49.87927 9.26073 10443 ft 357 kts 284°
2026-05-06 16:04 49.88611 9.22475 10313 ft 339 kts 284°
2026-05-06 16:05 49.88951 9.20682 10247 ft 331 kts 284°
2026-05-06 16:05 49.89431 9.18165 10166 ft 317 kts 284°
2026-05-06 16:05 49.90041 9.14951 10040 ft 303 kts 284°
2026-05-06 16:05 49.90624 9.11882 9912 ft 290 kts 284°
2026-05-06 16:06 49.91050 9.08892 9696 ft 279 kts 272°
2026-05-06 16:06 49.90827 9.05960 9431 ft 274 kts 250°
2026-05-06 16:06 49.89867 9.03439 9168 ft 273 kts 227°
2026-05-06 16:06 49.88506 9.01381 8916 ft 273 kts 227°
2026-05-06 16:07 49.87588 8.98876 8686 ft 272 kts 253°
2026-05-06 16:07 49.87499 8.95976 8457 ft 273 kts 279°
2026-05-06 16:07 49.88283 8.93297 8221 ft 277 kts 305°
2026-05-06 16:07 49.89781 8.91423 8001 ft 282 kts 332°
2026-05-06 16:08 49.91701 8.90750 7760 ft 288 kts 358°
2026-05-06 16:08 49.93652 8.91443 7542 ft 291 kts 24°
2026-05-06 16:08 49.95303 8.93262 7326 ft 293 kts 41°
2026-05-06 16:08 49.96787 8.95417 7105 ft 293 kts 43°
2026-05-06 16:09 49.98254 8.97620 6849 ft 293 kts 43°
2026-05-06 16:09 49.99712 8.99826 6422 ft 292 kts 44°
2026-05-06 16:09 50.01163 9.02019 6037 ft 289 kts 44°
2026-05-06 16:09 50.02604 9.04191 5627 ft 288 kts 44°
2026-05-06 16:10 50.04011 9.06325 5214 ft 285 kts 44°
2026-05-06 16:10 50.05411 9.08452 5000 ft 276 kts 44°
2026-05-06 16:10 50.06747 9.10485 4958 ft 260 kts 44°
2026-05-06 16:10 50.08017 9.12404 4960 ft 252 kts 44°
2026-05-06 16:11 50.09276 9.14309 4973 ft 254 kts 44°
2026-05-06 16:11 50.10619 9.16098 4969 ft 254 kts 30°
2026-05-06 16:11 50.12265 9.16899 4971 ft 246 kts 359°
2026-05-06 16:11 50.13896 9.16340 4967 ft 238 kts 328°
2026-05-06 16:12 50.15067 9.14625 4970 ft 230 kts 297°
2026-05-06 16:12 50.15555 9.12337 4968 ft 225 kts 277°
2026-05-06 16:12 50.15772 9.09923 4965 ft 225 kts 274°
2026-05-06 16:12 50.15947 9.07497 4965 ft 226 kts 273°
2026-05-06 16:13 50.16112 9.05065 4973 ft 225 kts 270°
2026-05-06 16:13 50.16043 9.02645 4973 ft 222 kts 259°
2026-05-06 16:13 50.15713 9.00300 4970 ft 222 kts 252°
2026-05-06 16:13 50.15228 8.98017 4977 ft 221 kts 249°
2026-05-06 16:14 50.14692 8.95772 4976 ft 221 kts 248°
2026-05-06 16:14 50.14152 8.93523 4978 ft 222 kts 248°
2026-05-06 16:14 50.13616 8.91283 4974 ft 216 kts 248°
2026-05-06 16:14 50.13113 8.89174 4976 ft 200 kts 249°
2026-05-06 16:15 50.12661 8.87262 4983 ft 182 kts 248°
2026-05-06 16:15 50.12230 8.85434 4819 ft 179 kts 248°
2026-05-06 16:15 50.11797 8.83620 4556 ft 178 kts 248°
2026-05-06 16:15 50.11366 8.81815 4270 ft 178 kts 248°
2026-05-06 16:16 50.10936 8.80010 3993 ft 177 kts 249°
2026-05-06 16:16 50.10515 8.78239 3746 ft 173 kts 249°
2026-05-06 16:16 50.10094 8.76475 3512 ft 174 kts 250°
2026-05-06 16:16 50.09672 8.74706 3279 ft 174 kts 250°
2026-05-06 16:17 50.09253 8.72944 3041 ft 172 kts 250°
2026-05-06 16:17 50.08850 8.71253 2818 ft 161 kts 250°
2026-05-06 16:17 50.08475 8.69683 2587 ft 148 kts 251°
2026-05-06 16:17 50.08139 8.68280 2417 ft 132 kts 252°
2026-05-06 16:18 50.07832 8.66983 2225 ft 125 kts 250°
2026-05-06 16:18 50.07528 8.65711 2102 ft 126 kts 251°
2026-05-06 16:18 50.07226 8.64443 1913 ft 124 kts 252°
2026-05-06 16:18 50.06927 8.63188 1751 ft 124 kts 251°
2026-05-06 16:19 50.06623 8.61917 1583 ft 126 kts 252°
2026-05-06 16:19 50.06314 8.60623 1409 ft 127 kts 253°
2026-05-06 16:19 50.06010 8.59348 1236 ft 126 kts 252°
2026-05-06 16:19 50.05700 8.58047 1046 ft 127 kts 251°
2026-05-06 16:20 50.05401 8.56796 858 ft 126 kts 249°
2026-05-06 16:20 50.05097 8.55523 695 ft 126 kts 250°
2026-05-06 16:20 50.04790 8.54263 514 ft 122 kts 252°
2026-05-06 16:20 50.04502 8.53039 378 ft 121 kts 250°
2026-05-06 16:21 50.04234 8.51920 353 ft 93 kts 250°
2026-05-06 16:21 50.04057 8.51168 331 ft 56 kts 250°
2026-05-06 16:21 50.03970 8.50800 328 ft 16 kts 250°
2026-05-06 16:21 50.03932 8.50658 327 ft 15 kts 243°
2026-05-06 16:22 50.03887 8.50509 326 ft 16 kts 245°
2026-05-06 16:22 50.03823 8.50365 324 ft 17 kts 226°
2026-05-06 16:22 50.03738 8.50238 321 ft 17 kts 216°
2026-05-06 16:22 50.03672 8.50189 325 ft 6 kts 183°
2026-05-06 16:23 50.03647 8.50203 325 ft 2 kts 149°
2026-05-06 16:23 50.03635 8.50236 326 ft 5 kts 109°
2026-05-06 16:23 50.03633 8.50275 329 ft 3 kts 90°
2026-05-06 16:23 50.03635 8.50300 329 ft 3 kts 79°
2026-05-06 16:24 50.03658 8.50407 331 ft 17 kts 70°
2026-05-06 16:24 50.03699 8.50584 334 ft 17 kts 70°
2026-05-06 16:24 50.03739 8.50752 333 ft 16 kts 70°
2026-05-06 16:24 50.03778 8.50914 336 ft 16 kts 70°
2026-05-06 16:25 50.03816 8.51071 353 ft 16 kts 69°
2026-05-06 16:25 50.03862 8.51259 350 ft 22 kts 69°
2026-05-06 16:25 50.03918 8.51493 350 ft 24 kts 70°
2026-05-06 16:25 50.03978 8.51748 349 ft 27 kts 70°
2026-05-06 16:26 50.04034 8.51981 354 ft 20 kts 70°
2026-05-06 16:26 50.04080 8.52174 358 ft 18 kts 69°
2026-05-06 16:26 50.04121 8.52343 361 ft 16 kts 69°
2026-05-06 16:26 50.04159 8.52501 360 ft 17 kts 69°
2026-05-06 16:27 50.04202 8.52681 361 ft 17 kts 70°
2026-05-06 16:27 50.04242 8.52854 367 ft 17 kts 70°
2026-05-06 16:27 50.04284 8.53025 364 ft 17 kts 69°
2026-05-06 16:27 50.04323 8.53189 373 ft 15 kts 70°
2026-05-06 16:28 50.04355 8.53319 374 ft 11 kts 69°
2026-05-06 16:28 50.04380 8.53423 378 ft 11 kts 70°
2026-05-06 16:28 50.04399 8.53571 382 ft 18 kts 82°
2026-05-06 16:28 50.04414 8.53786 382 ft 21 kts 84°
2026-05-06 16:29 50.04428 8.54002 382 ft 18 kts 85°
2026-05-06 16:29 50.04439 8.54170 381 ft 13 kts 84°
2026-05-06 16:29 50.04446 8.54291 381 ft 12 kts 85°
2026-05-06 16:29 50.04449 8.54437 377 ft 10 kts 92°
2026-05-06 16:30 50.04439 8.54562 375 ft 15 kts 107°
2026-05-06 16:30 50.04400 8.54665 376 ft 17 kts 130°
2026-05-06 16:30 50.04342 8.54743 372 ft 3 kts 147°
2026-05-06 16:30 50.04297 8.54779 369 ft 12 kts 157°
2026-05-06 16:31 50.04196 8.54838 362 ft 18 kts 160°
2026-05-06 16:31 50.04070 8.54910 366 ft 15 kts 159°
2026-05-06 16:31 50.03973 8.54967 365 ft 15 kts 160°
2026-05-06 16:31 50.03913 8.55002 360 ft 0 kts 159°
2026-05-06 16:32 50.03911 8.55004 360 ft 2 kts 159°
2026-05-06 16:32 50.03864 8.55041 365 ft 11 kts 138°
2026-05-06 16:32 50.03851 8.55146 359 ft 10 kts 73°
2026-05-06 16:33 50.03876 8.55244 360 ft 11 kts 68°
2026-05-06 16:33 50.03909 8.55375 364 ft 15 kts 68°
2026-05-06 16:33 50.03948 8.55534 358 ft 17 kts 69°
2026-05-06 16:34 50.04025 8.55853 365 ft 13 kts 69°
2026-05-06 16:34 50.04059 8.55943 364 ft 9 kts 41°
2026-05-06 16:34 50.04116 8.55954 365 ft 9 kts 346°
2026-05-06 16:34 50.04177 8.55924 364 ft 10 kts 342°
2026-05-06 16:35 50.04231 8.55935 362 ft 7 kts 34°
2026-05-06 16:35 50.04275 8.55967 368 ft 8 kts
2026-05-06 16:35 50.04339 8.55934 369 ft 12 kts 339°
2026-05-06 16:35 50.04427 8.55916 364 ft 13 kts
2026-05-06 16:36 50.04516 8.55952 369 ft 13 kts 21°
2026-05-06 16:36 50.04576 8.56058 371 ft 14 kts 66°
2026-05-06 16:36 50.04611 8.56199 369 ft 14 kts 69°
2026-05-06 16:36 50.04645 8.56339 369 ft 12 kts 70°
2026-05-06 16:37 50.04668 8.56438 366 ft 4 kts 70°
2026-05-06 16:37 50.04680 8.56489 371 ft 6 kts 70°
2026-05-06 16:37 50.04701 8.56554 368 ft 7 kts 59°
2026-05-06 16:37 50.04726 8.56600 371 ft 2 kts 39°
2026-05-06 16:38 50.04738 8.56606 367 ft 1 kts 16°
2026-05-06 16:38 50.04757 8.56607 368 ft 4 kts 358°
2026-05-06 16:38 50.04782 8.56597 368 ft 3 kts 343°
2026-05-06 16:38 50.04800 8.56588 367 ft 1 kts 341°
2026-05-06 16:39 50.04805 8.56585 366 ft 0 kts 341°